TimeEDT,TemperatureF,Dew PointF,Humidity,Sea Level PressureIn,VisibilityMPH,Wind Direction,Wind SpeedMPH,Gust SpeedMPH,PrecipitationIn,Events,Conditions,WindDirDegrees,DateUTC
12:51 AM,30.9,9.0,40,29.76,10.0,NW,19.6,27.6,N/A,,Mostly Cloudy,310,2013-03-22 04:51:00
1:51 AM,30.0,9.0,41,29.77,10.0,NW,13.8,21.9,N/A,,Partly Cloudy,310,2013-03-22 05:51:00
2:51 AM,30.0,10.9,45,29.76,10.0,WNW,11.5,-,N/A,,Mostly Cloudy,290,2013-03-22 06:51:00
3:51 AM,30.9,10.9,43,29.75,10.0,WNW,11.5,-,N/A,,Overcast,290,2013-03-22 07:51:00
4:51 AM,30.0,12.9,49,29.75,10.0,West,11.5,-,N/A,,Overcast,280,2013-03-22 08:51:00
5:51 AM,30.0,14.0,51,29.75,10.0,West,10.4,-,N/A,,Mostly Cloudy,280,2013-03-22 09:51:00
6:51 AM,28.9,16.0,58,29.78,10.0,West,10.4,-,N/A,,Scattered Clouds,280,2013-03-22 10:51:00
7:51 AM,30.0,17.1,59,29.80,10.0,West,12.7,-,N/A,,Scattered Clouds,280,2013-03-22 11:51:00
8:51 AM,33.1,16.0,50,29.80,10.0,WNW,11.5,-,N/A,,Scattered Clouds,290,2013-03-22 12:51:00
9:51 AM,35.1,16.0,46,29.81,10.0,WNW,15.0,23.0,N/A,,Scattered Clouds,290,2013-03-22 13:51:00
10:51 AM,37.0,14.0,39,29.81,10.0,NW,17.3,-,N/A,,Scattered Clouds,310,2013-03-22 14:51:00
11:51 AM,39.0,15.1,38,29.81,10.0,West,18.4,23.0,N/A,,Mostly Cloudy,270,2013-03-22 15:51:00
12:51 PM,39.0,14.0,36,29.80,10.0,WNW,16.1,25.3,N/A,,Mostly Cloudy,300,2013-03-22 16:51:00
1:51 PM,39.9,12.9,33,29.80,10.0,WNW,18.4,27.6,N/A,,Mostly Cloudy,290,2013-03-22 17:51:00
2:51 PM,41.0,12.0,31,29.79,10.0,WNW,16.1,29.9,N/A,,Mostly Cloudy,300,2013-03-22 18:51:00
3:51 PM,41.0,14.0,33,29.79,10.0,WNW,11.5,20.7,N/A,,Mostly Cloudy,300,2013-03-22 19:51:00
4:51 PM,39.9,15.1,36,29.80,10.0,West,20.7,25.3,N/A,,Mostly Cloudy,260,2013-03-22 20:51:00
5:51 PM,41.0,14.0,33,29.81,10.0,West,17.3,28.8,N/A,,Mostly Cloudy,270,2013-03-22 21:51:00
6:51 PM,39.9,12.9,33,29.83,10.0,West,16.1,25.3,N/A,,Mostly Cloudy,280,2013-03-22 22:51:00
7:51 PM,39.9,14.0,35,29.85,10.0,West,12.7,-,N/A,,Mostly Cloudy,270,2013-03-22 23:51:00
8:51 PM,39.0,17.1,41,29.87,10.0,West,13.8,23.0,N/A,,Scattered Clouds,280,2013-03-23 00:51:00
9:51 PM,37.9,18.0,45,29.88,10.0,West,13.8,-,N/A,,Partly Cloudy,270,2013-03-23 01:51:00
10:51 PM,37.0,21.0,52,29.88,10.0,West,15.0,-,N/A,,Partly Cloudy,270,2013-03-23 02:51:00
11:51 PM,36.0,21.0,55,29.90,10.0,West,11.5,-,N/A,,Partly Cloudy,280,2013-03-23 03:51:00